Time,TemperatureF,DewpointF,PressureIn,WindDirection,WindDirectionDegrees,WindSpeedMPH,WindSpeedGustMPH,Humidity,HourlyPrecipIn,Conditions,Clouds,dailyrainin,SolarRadiationWatts/m^2,SoftwareType,DateUTC
2013-11-28 00:02:00,28.0,12.0,-100.00,West,280,10.0,22.0,51,0.00,,,0.14,0.000000,,2013-11-28 05:02:00,
2013-11-28 00:12:00,28.0,12.0,-100.00,West,280,10.0,22.0,51,0.00,,,0.14,0.000000,,2013-11-28 05:12:00,
2013-11-28 00:43:00,28.0,12.0,-100.00,WNW,286,10.0,22.0,50,0.00,,,0.09,0.000000,,2013-11-28 05:43:00,
2013-11-28 00:53:00,28.0,12.0,-100.00,WNW,286,10.0,22.0,50,0.00,,,0.09,0.000000,,2013-11-28 05:53:00,
2013-11-28 01:03:00,28.0,12.0,-100.00,WNW,286,10.0,22.0,50,0.00,,,0.09,0.000000,,2013-11-28 06:03:00,
2013-11-28 01:12:00,28.0,12.0,-100.00,WNW,286,10.0,22.0,50,0.00,,,0.09,0.000000,,2013-11-28 06:12:00,
2013-11-28 01:42:00,28.0,12.0,-100.00,WNW,285,13.0,22.0,50,0.00,,,0.06,0.000000,,2013-11-28 06:42:00,
2013-11-28 01:52:00,28.0,12.0,-100.00,WNW,285,13.0,22.0,50,0.00,,,0.06,0.000000,,2013-11-28 06:52:00,
2013-11-28 02:01:00,28.0,12.0,-100.00,WNW,285,13.0,22.0,50,0.00,,,0.06,0.000000,,2013-11-28 07:01:00,
2013-11-28 02:11:00,28.0,12.0,-100.00,WNW,285,13.0,22.0,50,0.00,,,0.06,0.000000,,2013-11-28 07:11:00,
2013-11-28 02:42:00,27.0,13.0,-100.00,WNW,297,7.0,24.0,54,0.00,,,0.06,0.000000,,2013-11-28 07:42:00,
2013-11-28 02:52:00,27.0,13.0,-100.00,WNW,297,7.0,24.0,54,0.00,,,0.06,0.000000,,2013-11-28 07:52:00,
2013-11-28 03:02:00,27.0,13.0,-100.00,WNW,297,7.0,24.0,54,0.00,,,0.06,0.000000,,2013-11-28 08:02:00,
2013-11-28 03:11:00,27.0,13.0,-100.00,WNW,297,7.0,24.0,54,0.00,,,0.06,0.000000,,2013-11-28 08:11:00,
2013-11-28 03:42:00,27.0,10.0,-100.00,WNW,301,9.0,17.0,49,0.00,,,0.06,0.000000,,2013-11-28 08:42:00,
2013-11-28 03:53:00,27.0,10.0,-100.00,WNW,301,9.0,17.0,49,0.00,,,0.06,0.000000,,2013-11-28 08:53:00,
2013-11-28 04:02:00,27.0,10.0,-100.00,WNW,301,9.0,17.0,49,0.00,,,0.06,0.000000,,2013-11-28 09:02:00,
2013-11-28 04:11:00,27.0,10.0,-100.00,WNW,301,9.0,17.0,49,0.00,,,0.06,0.000000,,2013-11-28 09:11:00,
2013-11-28 04:43:00,26.0,9.0,-100.00,WNW,297,7.0,21.0,47,0.00,,,0.06,0.000000,,2013-11-28 09:43:00,
2013-11-28 04:53:00,26.0,9.0,-100.00,WNW,297,7.0,21.0,47,0.00,,,0.06,0.000000,,2013-11-28 09:53:00,
2013-11-28 05:03:00,26.0,9.0,-100.00,WNW,297,7.0,21.0,47,0.00,,,0.06,0.000000,,2013-11-28 10:03:00,
2013-11-28 05:12:00,26.0,9.0,-100.00,WNW,297,7.0,21.0,47,0.00,,,0.06,0.000000,,2013-11-28 10:12:00,
2013-11-28 05:43:00,26.0,11.0,-100.00,WNW,293,7.0,19.0,52,0.00,,,0.04,0.000000,,2013-11-28 10:43:00,
2013-11-28 05:53:00,26.0,11.0,-100.00,WNW,293,7.0,19.0,52,0.00,,,0.04,0.000000,,2013-11-28 10:53:00,
2013-11-28 06:02:00,26.0,11.0,-100.00,WNW,293,7.0,19.0,52,0.00,,,0.04,0.000000,,2013-11-28 11:02:00,
2013-11-28 06:12:00,26.0,11.0,-100.00,WNW,293,7.0,19.0,52,0.00,,,0.04,0.000000,,2013-11-28 11:12:00,
2013-11-28 06:42:00,26.0,11.0,-100.00,WNW,283,8.0,17.0,52,0.00,,,0.02,0.000000,,2013-11-28 11:42:00,
2013-11-28 06:52:00,26.0,11.0,-100.00,WNW,283,8.0,17.0,52,0.00,,,0.02,0.000000,,2013-11-28 11:52:00,
2013-11-28 07:03:00,26.0,11.0,-100.00,WNW,283,8.0,17.0,52,0.00,,,0.02,0.000000,,2013-11-28 12:03:00,
2013-11-28 07:12:00,26.0,11.0,-100.00,WNW,283,8.0,17.0,52,0.00,,,0.02,0.000000,,2013-11-28 12:12:00,
2013-11-28 07:42:00,25.0,10.0,-100.00,West,281,6.0,17.0,52,0.00,,,0.02,1.000000,,2013-11-28 12:42:00,
2013-11-28 07:52:00,25.0,10.0,-100.00,West,281,6.0,17.0,52,0.00,,,0.02,1.000000,,2013-11-28 12:52:00,
2013-11-28 08:02:00,25.0,10.0,-100.00,West,281,6.0,17.0,52,0.00,,,0.02,1.000000,,2013-11-28 13:02:00,
2013-11-28 08:11:00,25.0,10.0,-100.00,West,281,6.0,17.0,52,0.00,,,0.02,1.000000,,2013-11-28 13:11:00,
2013-11-28 08:42:00,29.0,12.0,-100.00,WNW,293,6.0,12.0,49,0.00,,,0.02,42.000000,,2013-11-28 13:42:00,
2013-11-28 08:52:00,29.0,12.0,-100.00,WNW,293,6.0,12.0,49,0.00,,,0.02,42.000000,,2013-11-28 13:52:00,
2013-11-28 09:02:00,29.0,12.0,-100.00,WNW,293,6.0,12.0,49,0.00,,,0.02,42.000000,,2013-11-28 14:02:00,
2013-11-28 09:11:00,29.0,12.0,-100.00,WNW,293,6.0,12.0,49,0.00,,,0.02,42.000000,,2013-11-28 14:11:00,
2013-11-28 09:42:00,30.0,12.0,-100.00,WNW,296,9.0,18.0,46,0.00,,,0.02,174.000000,,2013-11-28 14:42:00,
2013-11-28 09:52:00,30.0,12.0,-100.00,WNW,296,9.0,18.0,46,0.00,,,0.02,174.000000,,2013-11-28 14:52:00,
2013-11-28 10:02:00,30.0,12.0,-100.00,WNW,296,9.0,18.0,46,0.00,,,0.02,174.000000,,2013-11-28 15:02:00,
2013-11-28 10:12:00,30.0,12.0,-100.00,WNW,296,9.0,18.0,46,0.00,,,0.02,174.000000,,2013-11-28 15:12:00,
2013-11-28 10:13:00,33.0,14.0,-100.00,WNW,282,9.0,19.0,45,0.00,,,0.02,297.000000,,2013-11-28 15:13:00,
2013-11-28 10:44:00,33.0,14.0,-100.00,WNW,282,9.0,19.0,45,0.00,,,0.02,297.000000,,2013-11-28 15:44:00,
2013-11-28 10:54:00,33.0,14.0,-100.00,WNW,282,9.0,19.0,45,0.00,,,0.02,297.000000,,2013-11-28 15:54:00,
2013-11-28 11:03:00,33.0,14.0,-100.00,WNW,282,9.0,19.0,45,0.00,,,0.02,297.000000,,2013-11-28 16:03:00,
2013-11-28 11:43:00,34.0,14.0,-100.00,WNW,290,8.0,17.0,43,0.00,,,0.02,391.000000,,2013-11-28 16:43:00,
2013-11-28 11:54:00,34.0,14.0,-100.00,WNW,290,8.0,17.0,43,0.00,,,0.02,391.000000,,2013-11-28 16:54:00,
2013-11-28 12:02:00,34.0,14.0,-100.00,WNW,290,8.0,17.0,43,0.00,,,0.02,391.000000,,2013-11-28 17:02:00,
2013-11-28 12:12:00,34.0,14.0,-100.00,WNW,290,8.0,17.0,43,0.00,,,0.02,391.000000,,2013-11-28 17:12:00,
2013-11-28 12:42:00,35.0,15.0,-100.00,WNW,285,9.0,18.0,44,0.00,,,0.02,438.000000,,2013-11-28 17:42:00,
2013-11-28 12:52:00,35.0,15.0,-100.00,WNW,285,9.0,18.0,44,0.00,,,0.02,438.000000,,2013-11-28 17:52:00,
2013-11-28 13:02:00,35.0,15.0,-100.00,WNW,285,9.0,18.0,44,0.00,,,0.02,438.000000,,2013-11-28 18:02:00,
2013-11-28 13:12:00,35.0,15.0,-100.00,WNW,285,9.0,18.0,44,0.00,,,0.02,438.000000,,2013-11-28 18:12:00,
2013-11-28 13:42:00,36.0,15.0,-100.00,WNW,283,10.0,17.0,42,0.00,,,0.02,437.000000,,2013-11-28 18:42:00,
2013-11-28 13:52:00,36.0,15.0,-100.00,WNW,283,10.0,17.0,42,0.00,,,0.02,437.000000,,2013-11-28 18:52:00,
2013-11-28 14:02:00,36.0,15.0,-100.00,WNW,283,10.0,17.0,42,0.00,,,0.02,437.000000,,2013-11-28 19:02:00,
2013-11-28 14:11:00,36.0,15.0,-100.00,WNW,283,10.0,17.0,42,0.00,,,0.02,437.000000,,2013-11-28 19:11:00,
2013-11-28 14:42:00,37.0,14.0,-100.00,West,279,9.0,17.0,38,0.00,,,0.02,372.000000,,2013-11-28 19:42:00,
2013-11-28 14:52:00,37.0,14.0,-100.00,West,279,9.0,17.0,38,0.00,,,0.02,372.000000,,2013-11-28 19:52:00,
2013-11-28 15:01:00,37.0,14.0,-100.00,West,279,9.0,17.0,38,0.00,,,0.02,372.000000,,2013-11-28 20:01:00,
2013-11-28 15:12:00,37.0,14.0,-100.00,West,279,9.0,17.0,38,0.00,,,0.02,372.000000,,2013-11-28 20:12:00,
2013-11-28 15:42:00,37.0,15.0,-100.00,WNW,296,6.0,13.0,40,0.00,,,0.01,262.000000,,2013-11-28 20:42:00,
2013-11-28 15:52:00,37.0,15.0,-100.00,WNW,296,6.0,13.0,40,0.00,,,0.01,262.000000,,2013-11-28 20:52:00,
2013-11-28 16:02:00,37.0,15.0,-100.00,WNW,296,6.0,13.0,40,0.00,,,0.01,262.000000,,2013-11-28 21:02:00,
2013-11-28 16:11:00,37.0,15.0,-100.00,WNW,296,6.0,13.0,40,0.00,,,0.01,262.000000,,2013-11-28 21:11:00,
2013-11-28 16:13:00,33.0,14.0,-100.00,West,263,3.0,11.0,46,0.00,,,0.00,83.000000,,2013-11-28 21:13:00,
2013-11-28 16:43:00,33.0,14.0,-100.00,West,263,3.0,11.0,46,0.00,,,0.00,83.000000,,2013-11-28 21:43:00,
2013-11-28 16:53:00,33.0,14.0,-100.00,West,263,3.0,11.0,46,0.00,,,0.00,83.000000,,2013-11-28 21:53:00,
2013-11-28 17:03:00,33.0,14.0,-100.00,West,263,3.0,11.0,46,0.00,,,0.00,83.000000,,2013-11-28 22:03:00,
2013-11-28 17:42:00,32.0,16.0,-100.00,WSW,249,4.0,7.0,52,0.00,,,0.00,7.000000,,2013-11-28 22:42:00,
2013-11-28 17:53:00,32.0,16.0,-100.00,WSW,249,4.0,7.0,52,0.00,,,0.00,7.000000,,2013-11-28 22:53:00,
2013-11-28 18:02:00,32.0,16.0,-100.00,WSW,249,4.0,7.0,52,0.00,,,0.00,7.000000,,2013-11-28 23:02:00,
2013-11-28 18:12:00,32.0,16.0,-100.00,WSW,249,4.0,7.0,52,0.00,,,0.00,7.000000,,2013-11-28 23:12:00,
2013-11-28 18:42:00,31.0,16.0,-100.00,North,1,3.0,7.0,54,0.00,,,0.00,0.000000,,2013-11-28 23:42:00,
2013-11-28 18:52:00,31.0,16.0,-100.00,North,1,3.0,7.0,54,0.00,,,0.00,0.000000,,2013-11-28 23:52:00,
2013-11-28 19:02:00,31.0,16.0,-100.00,North,1,3.0,7.0,54,0.00,,,0.00,0.000000,,2013-11-29 00:02:00,
2013-11-28 19:11:00,31.0,16.0,-100.00,North,1,3.0,7.0,54,0.00,,,0.00,0.000000,,2013-11-29 00:11:00,
2013-11-28 19:42:00,31.0,17.0,-100.00,NNE,17,3.0,5.0,55,0.00,,,0.00,0.000000,,2013-11-29 00:42:00,
2013-11-28 19:52:00,31.0,17.0,-100.00,NNE,17,3.0,5.0,55,0.00,,,0.00,0.000000,,2013-11-29 00:52:00,
2013-11-28 20:01:00,31.0,17.0,-100.00,NNE,17,3.0,5.0,55,0.00,,,0.00,0.000000,,2013-11-29 01:01:00,
2013-11-28 20:12:00,31.0,17.0,-100.00,NNE,17,3.0,5.0,55,0.00,,,0.00,0.000000,,2013-11-29 01:12:00,
2013-11-28 20:42:00,30.0,17.0,-100.00,East,89,2.0,4.0,58,0.00,,,0.00,0.000000,,2013-11-29 01:42:00,
2013-11-28 20:52:00,30.0,17.0,-100.00,East,89,2.0,4.0,58,0.00,,,0.00,0.000000,,2013-11-29 01:52:00,
2013-11-28 21:02:00,30.0,17.0,-100.00,East,89,2.0,4.0,58,0.00,,,0.00,0.000000,,2013-11-29 02:02:00,
2013-11-28 21:12:00,30.0,17.0,-100.00,East,89,2.0,4.0,58,0.00,,,0.00,0.000000,,2013-11-29 02:12:00,
2013-11-28 21:42:00,30.0,18.0,-100.00,ESE,121,2.0,3.0,61,0.00,,,0.00,0.000000,,2013-11-29 02:42:00,
2013-11-28 21:52:00,30.0,18.0,-100.00,ESE,121,2.0,3.0,61,0.00,,,0.00,0.000000,,2013-11-29 02:52:00,
2013-11-28 22:02:00,30.0,18.0,-100.00,ESE,121,2.0,3.0,61,0.00,,,0.00,0.000000,,2013-11-29 03:02:00,
2013-11-28 22:11:00,30.0,18.0,-100.00,ESE,121,2.0,3.0,61,0.00,,,0.00,0.000000,,2013-11-29 03:11:00,
2013-11-28 22:13:00,30.0,17.0,-100.00,SE,137,1.0,3.0,59,0.00,,,-99.99,0.000000,,2013-11-29 03:13:00,
2013-11-28 22:43:00,30.0,17.0,-100.00,SE,137,1.0,3.0,59,0.00,,,-99.99,0.000000,,2013-11-29 03:43:00,
2013-11-28 22:54:00,30.0,17.0,-100.00,SE,137,1.0,3.0,59,0.00,,,-99.99,0.000000,,2013-11-29 03:54:00,
2013-11-28 23:03:00,30.0,17.0,-100.00,SE,137,1.0,3.0,59,0.00,,,-99.99,0.000000,,2013-11-29 04:03:00,
2013-11-28 23:43:00,30.0,19.0,-100.00,NW,309,2.0,2.0,64,0.00,,,0.00,0.000000,,2013-11-29 04:43:00,
2013-11-28 23:52:00,30.0,19.0,-100.00,NW,309,2.0,2.0,64,0.00,,,0.00,0.000000,,2013-11-29 04:52:00,